When you browse on this site, cookies collect data to enhance your experience and personalize the content and advertising you see.
Visit our Privacy Policy to learn more. By continuing to use the site, you agree to this use of cookies and data.
  • In Schweiz
  • Länderverzeichnis
  • Für 7 Tage
  • Wassertemperatur
  • Wetterkarte
  • Widgets
  • user-avatar
    Anmelden

    Stündliche Wetter Leicester

    Heute, 9 Dezember, Montag

    Zeit Temperatur Niederschläge Wind Luftdruck Luftfeuchtigkeit
    00:00 +3°C° 0 mm 7 m/S 735 mmHg 88%
    01:00 +3°C° 0.1 mm 6 m/S 735 mmHg 88%
    02:00 +3°C° 0.1 mm 5 m/S 735 mmHg 88%
    03:00 +4°C° 0.1 mm 4 m/S 735 mmHg 88%
    04:00 +4°C° 0.1 mm 6 m/S 737 mmHg 84%
    05:00 +4°C° 0.1 mm 7 m/S 739 mmHg 79%
    06:00 +4°C° 0 mm 7 m/S 742 mmHg 78%
    07:00 +4°C° 0 mm 7 m/S 744 mmHg 76%
    08:00 +4°C° 0 mm 7 m/S 746 mmHg 75%
    09:00 +4°C° 0 mm 7 m/S 748 mmHg 74%
    10:00 +4°C° 0 mm 7 m/S 749 mmHg 70%
    11:00 +5°C° 0 mm 7 m/S 751 mmHg 67%
    12:00 +5°C° 0 mm 7 m/S 753 mmHg 64%
    13:00 +5°C° 0 mm 6 m/S 754 mmHg 65%
    14:00 +5°C° 0 mm 5 m/S 754 mmHg 66%
    15:00 +5°C° 0 mm 4 m/S 755 mmHg 67%
    16:00 +4°C° 0 mm 4 m/S 757 mmHg 70%
    17:00 +3°C° 0 mm 3 m/S 758 mmHg 72%
    18:00 +2°C° 0 mm 3 m/S 759 mmHg 75%
    19:00 +2°C° 0 mm 3 m/S 759 mmHg 77%
    20:00 +3°C° 0 mm 2 m/S 760 mmHg 79%
    21:00 +2°C° 0 mm 2 m/S 760 mmHg 81%
    22:00 +2°C° 0 mm 2 m/S 760 mmHg 83%
    23:00 +1°C° 0 mm 3 m/S 760 mmHg 86%

    Morgen, 10 Dezember, Dienstag

    Zeit Temperatur Niederschläge Wind Luftdruck Luftfeuchtigkeit
    00:00 +1°C° 0 mm 3 m/S 760 mmHg 88%
    01:00 +1°C° 0 mm 3 m/S 760 mmHg 87%
    02:00 +1°C° 0 mm 4 m/S 759 mmHg 86%
    03:00 +1°C° 0 mm 4 m/S 759 mmHg 85%
    04:00 +1°C° 0 mm 5 m/S 758 mmHg 83%
    05:00 +2°C° 0 mm 6 m/S 757 mmHg 82%
    06:00 +2°C° 0 mm 7 m/S 756 mmHg 80%
    07:00 +2°C° 0.1 mm 8 m/S 755 mmHg 82%
    08:00 +3°C° 0.1 mm 9 m/S 754 mmHg 84%
    09:00 +5°C° 0.1 mm 10 m/S 753 mmHg 86%
    10:00 +5°C° 0.5 mm 10 m/S 752 mmHg 87%
    11:00 +6°C° 0.5 mm 11 m/S 750 mmHg 87%
    12:00 +5°C° 0.5 mm 12 m/S 749 mmHg 87%
    13:00 +7°C° 0.2 mm 12 m/S 747 mmHg 87%
    14:00 +8°C° 0.2 mm 12 m/S 745 mmHg 87%
    15:00 +8°C° 0.2 mm 12 m/S 744 mmHg 87%
    16:00 +9°C° 0.9 mm 12 m/S 743 mmHg 88%
    17:00 +9°C° 0.9 mm 11 m/S 743 mmHg 89%
    18:00 +11°C° 0.9 mm 11 m/S 743 mmHg 89%
    19:00 +8°C° 0.8 mm 10 m/S 744 mmHg 86%
    20:00 +7°C° 0.8 mm 8 m/S 744 mmHg 82%
    21:00 +5°C° 0.8 mm 7 m/S 745 mmHg 78%
    22:00 +5°C° 0 mm 6 m/S 746 mmHg 78%
    23:00 +5°C° 0 mm 5 m/S 747 mmHg 79%

    übermorgen, 11 Dezember, Mittwoch

    Zeit Temperatur Niederschläge Wind Luftdruck Luftfeuchtigkeit
    00:00 +3°C° 0 mm 5 m/S 747 mmHg 79%
    01:00 +3°C° 0 mm 5 m/S 747 mmHg 81%
    02:00 +3°C° 0 mm 4 m/S 747 mmHg 82%
    03:00 +3°C° 0 mm 4 m/S 747 mmHg 83%
    04:00 +3°C° 0 mm 4 m/S 747 mmHg 83%
    05:00 +3°C° 0 mm 4 m/S 747 mmHg 84%
    06:00 +1°C° 0 mm 4 m/S 747 mmHg 84%
    07:00 +3°C° 0 mm 4 m/S 747 mmHg 84%
    08:00 +3°C° 0 mm 4 m/S 746 mmHg 84%
    09:00 +2°C° 0 mm 5 m/S 746 mmHg 84%
    10:00 +3°C° 0 mm 5 m/S 746 mmHg 82%
    11:00 +3°C° 0 mm 5 m/S 745 mmHg 80%
    12:00 +5°C° 0 mm 5 m/S 744 mmHg 77%
    13:00 +5°C° 0.1 mm 5 m/S 744 mmHg 80%
    14:00 +4°C° 0.1 mm 4 m/S 743 mmHg 82%
    15:00 +4°C° 0.1 mm 3 m/S 743 mmHg 85%
    16:00 +3°C° 1.3 mm 4 m/S 743 mmHg 85%
    17:00 +3°C° 1.3 mm 4 m/S 743 mmHg 86%
    18:00 +1°C° 1.3 mm 5 m/S 743 mmHg 87%
    19:00 +1°C° 0 mm 5 m/S 744 mmHg 86%
    20:00 +1°C° 0 mm 4 m/S 745 mmHg 84%
    21:00 0°C° 0 mm 4 m/S 745 mmHg 83%
    22:00 0°C° 0 mm 4 m/S 745 mmHg 83%
    23:00 0°C° 0 mm 4 m/S 745 mmHg 84%

    12 Dezember, Donnerstag

    Zeit Temperatur Niederschläge Wind Luftdruck Luftfeuchtigkeit
    00:00 0°C° 0 mm 4 m/S 746 mmHg 84%
    01:00 0°C° 0 mm 4 m/S 745 mmHg 85%
    02:00 -1°C° 0 mm 4 m/S 745 mmHg 86%
    03:00 -1°C° 0 mm 4 m/S 745 mmHg 88%
    04:00 -1°C° 0 mm 4 m/S 744 mmHg 87%
    05:00 -1°C° 0 mm 4 m/S 744 mmHg 86%
    06:00 -1°C° 0 mm 4 m/S 743 mmHg 85%
    07:00 0°C° 0 mm 5 m/S 742 mmHg 86%
    08:00 +1°C° 0 mm 6 m/S 740 mmHg 87%
    09:00 0°C° 0 mm 7 m/S 739 mmHg 89%
    10:00 +2°C° 0.3 mm 8 m/S 736 mmHg 89%
    11:00 +3°C° 0.3 mm 10 m/S 734 mmHg 89%
    12:00 +4°C° 0.3 mm 11 m/S 731 mmHg 90%
    13:00 +6°C° 2.5 mm 10 m/S 729 mmHg 89%
    14:00 +6°C° 2.5 mm 9 m/S 726 mmHg 89%
    15:00 +7°C° 2.5 mm 8 m/S 723 mmHg 88%
    16:00 +6°C° 0.8 mm 9 m/S 723 mmHg 84%
    17:00 +5°C° 0.8 mm 9 m/S 722 mmHg 80%
    18:00 +3°C° 0.8 mm 10 m/S 722 mmHg 76%
    19:00 +2°C° 0 mm 9 m/S 722 mmHg 77%
    20:00 +1°C° 0 mm 9 m/S 722 mmHg 78%
    21:00 0°C° 0 mm 8 m/S 722 mmHg 78%
    22:00 0°C° 0 mm 8 m/S 722 mmHg 78%
    23:00 0°C° 0 mm 9 m/S 721 mmHg 77%

    13 Dezember, Freitag

    Zeit Temperatur Niederschläge Wind Luftdruck Luftfeuchtigkeit
    00:00 0°C° 0 mm 9 m/S 721 mmHg 76%
    01:00 0°C° 0 mm 9 m/S 720 mmHg 77%
    02:00 0°C° 0 mm 10 m/S 719 mmHg 77%
    03:00 -1°C° 0 mm 11 m/S 718 mmHg 78%
    04:00 +1°C° 0.4 mm 11 m/S 718 mmHg 81%
    05:00 +2°C° 0.4 mm 12 m/S 717 mmHg 83%
    06:00 +3°C° 0.4 mm 12 m/S 716 mmHg 86%
    07:00 +3°C° 0.8 mm 12 m/S 718 mmHg 86%
    08:00 +3°C° 0.8 mm 12 m/S 719 mmHg 86%
    09:00 +4°C° 0.8 mm 12 m/S 720 mmHg 86%
    10:00 +4°C° 0.2 mm 12 m/S 721 mmHg 81%
    11:00 +4°C° 0.2 mm 12 m/S 723 mmHg 76%
    12:00 +3°C° 0.2 mm 12 m/S 724 mmHg 70%
    13:00 +3°C° 0 mm 11 m/S 725 mmHg 70%
    14:00 +3°C° 0 mm 9 m/S 725 mmHg 70%
    15:00 +2°C° 0 mm 8 m/S 726 mmHg 70%
    16:00 +2°C° 0.1 mm 8 m/S 727 mmHg 73%
    17:00 +1°C° 0.1 mm 8 m/S 727 mmHg 75%
    18:00 +1°C° 0.1 mm 8 m/S 728 mmHg 78%
    19:00 +1°C° 0 mm 8 m/S 728 mmHg 77%
    20:00 +1°C° 0 mm 8 m/S 728 mmHg 77%
    21:00 +1°C° 0 mm 8 m/S 729 mmHg 76%
    22:00 +1°C° 0 mm 8 m/S 729 mmHg 76%
    23:00 0°C° 0 mm 7 m/S 730 mmHg 76%

    14 Dezember, Samstag

    Zeit Temperatur Niederschläge Wind Luftdruck Luftfeuchtigkeit
    00:00 0°C° 0 mm 7 m/S 730 mmHg 75%
    01:00 0°C° 0 mm 7 m/S 731 mmHg 75%
    02:00 0°C° 0 mm 7 m/S 731 mmHg 75%
    03:00 0°C° 0 mm 7 m/S 732 mmHg 75%
    04:00 +1°C° 0 mm 6 m/S 732 mmHg 75%
    05:00 +1°C° 0 mm 6 m/S 732 mmHg 75%
    06:00 +1°C° 0 mm 6 m/S 733 mmHg 76%
    07:00 +1°C° 0 mm 6 m/S 733 mmHg 77%
    08:00 +1°C° 0 mm 5 m/S 733 mmHg 78%
    09:00 0°C° 0 mm 5 m/S 734 mmHg 79%
    10:00 +1°C° 0 mm 6 m/S 734 mmHg 78%
    11:00 +2°C° 0 mm 6 m/S 734 mmHg 76%
    12:00 +3°C° 0 mm 6 m/S 734 mmHg 75%
    13:00 +3°C° 0.1 mm 7 m/S 735 mmHg 74%
    14:00 +3°C° 0.1 mm 7 m/S 735 mmHg 73%
    15:00 +3°C° 0.1 mm 7 m/S 736 mmHg 71%
    16:00 +2°C° 0 mm 7 m/S 736 mmHg 70%
    17:00 +1°C° 0 mm 6 m/S 737 mmHg 69%
    18:00 -1°C° 0 mm 6 m/S 738 mmHg 68%
    19:00 0°C° 0 mm 5 m/S 738 mmHg 70%
    20:00 0°C° 0 mm 5 m/S 738 mmHg 72%
    21:00 -1°C° 0 mm 4 m/S 738 mmHg 74%
    22:00 0°C° 0.3 mm 5 m/S 737 mmHg 78%
    23:00 +1°C° 0.3 mm 6 m/S 736 mmHg 81%
    Mehr zeigen